Location: Covington Volunteer Fire Department
(32.1788°N, 97.2565°W)
Time: 04:48:07
(UTC+00:00)

Daily predictions for brighter satellites

Satellite Brightness Start Highest point End
(mag) Time Altitude Azimuth Time Altitude Azimuth Time Altitude Azimuth
SJ-7 4.3 00:02:54 10° SSE 00:06:47 63° ENE 00:10:42 10° N
Cosmos 2263 Rocket 3.1 00:04:49 10° SSE 00:09:30 27° ESE 00:14:12 10° NE
PSLV R/B 3.5 00:05:20 10° SSE 00:09:31 87° E 00:13:46 10° NNW
SKYMED 2 3.9 00:06:47 10° NNE 00:10:56 45° E 00:15:06 10° S
Cosmos 2285 Rocket 4.0 00:06:02 10° SSW 00:12:19 85° ESE 00:18:37 10° NNE
CORIOLIS 4.3 00:07:35 10° S 00:12:58 81° W 00:18:20 10° NNW
OAO 3 Rocket 3.7 00:08:53 10° SW 00:13:34 49° SSE 00:17:45 13° E
Cosmos 2227 Rocket 2.2 00:12:34 10° SSW 00:18:12 89° ESE 00:23:52 10° NNE
Cosmos 2297 Rocket 3.5 00:13:00 10° SW 00:18:18 41° WNW 00:23:38 10° N
ATLAS CENTAUR R/B 4.1 00:14:33 10° WSW 00:18:42 24° NW 00:21:56 10° N
Skynet4D Del rocket 4.3 00:13:59 10° WSW 00:19:08 42° S 00:23:50 12° ESE
USA 281 3.4 00:15:34 10° NNE 00:21:55 50° ESE 00:28:14 10° S
ADEOS Rocket 4.4 00:16:13 10° S 00:23:25 55° W 00:31:01 10° NNW
IGS 5A 3.4 00:20:02 10° SSE 00:23:58 58° ENE 00:27:56 10° N
Tiangong -1.8 00:26:32 10° SW 00:29:40 53° SSE 00:31:22 23° ENE
USA 307 2.8 00:30:30 10° SSW 00:33:26 40° SE 00:35:01 25° ENE
CZ-4C R/B 4.5 00:30:54 10° N 00:34:52 15° NE 00:36:14 14° NE
Cosmos 2151 Rocket 3.5 00:31:02 10° S 00:35:23 89° W 00:39:47 10° N
Cosmos 968 Rocket 4.2 00:30:37 10° SSW 00:35:33 53° WNW 00:40:33 10° N
NOSS 0 Rocket 4.5 00:30:42 10° NNW 00:36:44 63° WSW 00:42:47 10° S
SL-16 R/B 3.4 00:33:17 10° NNE 00:37:26 20° ENE 00:38:09 20° ENE
COSMOS 2428 4.5 00:33:19 10° NW 00:38:26 36° WSW 00:43:32 10° SSW
Cosmos 2237 Rocket 2.1 00:34:20 10° NNW 00:40:03 82° ENE 00:45:44 10° SSE
CZ-4 R/B 4.3 00:37:00 10° SSE 00:40:57 63° ENE 00:44:56 10° N
Okean 1 Rocket 3.0 00:40:04 10° S 00:44:21 64° E 00:48:42 10° NNE
Cosmos 2219 3.2 00:38:50 10° S 00:44:31 70° ESE 00:50:15 10° NNE
YAOGAN 11 4.1 00:40:28 10° NNE 00:44:57 68° ESE 00:49:25 10° S
Cosmos 304 Rocket 4.2 00:42:04 10° S 00:46:26 38° E 00:48:34 25° NE
YAOGAN 1 3.1 00:42:45 10° SE 00:46:34 33° ENE 00:50:24 10° N
Cosmos 841 Rocket 4.4 00:45:04 10° NNW 00:50:07 51° WSW 00:55:10 10° S
BREEZE-M DEB (TANK) 4.0 00:43:32 10° NW 00:54:20 54° SW 00:57:43 10° SSE
Cosmos 1606 4.2 00:53:09 10° SSE 00:54:22 19° SSE 00:54:22 19° SSE
COSMO-SKYMED 1 3.7 00:54:49 10° N 00:58:57 44° WNW 01:03:03 10° SW
CZ-4B R/B 3.6 00:58:19 10° SSE 01:02:00 86° W 01:05:51 10° NNW
SJ 16-02 3.8 00:59:08 10° WSW 01:02:25 21° WNW 01:05:44 10° NNW
NOAA 6 3.9 00:58:14 10° SSE 01:03:22 73° ENE 01:08:32 10° N
Intercosmos 25 Rocket 2.7 01:01:44 10° S 01:04:52 85° E 01:05:33 53° NNE
NOSS 3-1 (C) 3.5 01:00:32 10° SW 01:05:04 53° WNW 01:09:23 14° NNE
NOSS 3-1 (A) 2.7 01:05:36 10° SSW 01:10:05 60° ESE 01:11:05 49° ENE
Cosmos 2154 Rocket 3.9 01:08:43 10° N 01:15:05 76° E 01:21:22 10° S
ATLAS 3B R/B 3.1 01:08:46 10° S 01:15:10 42° ESE 01:16:22 39° E
Meteor 1-31 Rocket 3.6 01:13:58 10° S 01:17:29 46° W 01:21:03 10° NNW
ACS3 Solar Sail 3.3 01:22:05 19° NNE 01:22:05 19° NNE 01:24:07 10° N
Cosmos 1536 Rocket 4.4 01:16:40 10° NNW 01:20:53 49° W 01:25:07 10° SSW
CZ-2C R/B 3.4 01:24:05 10° S 01:27:30 48° W 01:30:59 10° NNW
DMSP B5D1-3 4.5 01:24:28 17° N 01:28:25 82° WNW 01:33:31 10° SSW
Cosmos 44 Rocket 3.6 01:28:06 10° SW 01:33:02 65° WNW 01:34:04 51° N
Cosmos 371 Rocket 4.0 01:31:25 10° SSW 01:36:01 49° WNW 01:38:12 28° N
IRIDIUM 104 4.2 01:31:42 10° S 01:36:55 86° W 01:38:51 40° N
Lacrosse 4 Rocket 2.8 01:43:04 10° SSW 01:45:37 35° SW 01:45:37 35° SW
Cosmos 2263 Rocket 3.7 01:48:08 10° SW 01:53:11 33° WNW 01:57:12 15° N
Milstar 3 4.0 01:43:05 10° SW 01:53:20 36° SSE 01:54:13 35° SSE
OAO 3 Rocket 4.2 01:51:53 10° W 01:55:18 44° W 01:55:18 44° W
SL-12 R/B(2) 4.4 01:52:53 10° SW 02:00:27 66° WNW 02:05:05 30° NNE
Milstar 3 Cent rocket 3.5 02:01:47 10° WSW 02:04:53 28° SW 02:04:53 28° SW
SL-16 R/B 3.5 02:16:19 10° NW 02:20:06 36° WNW 02:20:06 36° WNW
CZ-4C R/B 3.8 02:16:47 10° NNW 02:21:20 40° N 02:21:20 40° N
ACS3 Solar Sail 4.3 03:07:04 13° NW 03:07:04 13° NW 03:07:50 10° NNW
ATLAS 3B R/B 4.3 02:59:29 10° WSW 03:03:42 30° W 03:03:42 30° W
Cosmos 1980 Rocket 4.2 10:10:36 19° NNE 10:10:36 19° NNE 10:12:04 10° NNE
Lacrosse 4 Rocket 4.4 10:12:22 11° NE 10:12:54 11° NE 10:14:00 10° ENE
Atlas Centaur 2 3.8 10:20:59 19° E 10:20:59 19° E 10:22:10 10° E
Meteor 2-5 Rocket 4.5 10:16:35 10° SSE 10:22:11 51° E 10:27:41 10° NNE
NOSS 3-1 (C) 4.1 10:32:13 65° W 10:32:56 67° WSW 10:42:06 10° SSE
NOSS 3-1 (A) 4.4 10:33:37 31° NNW 10:38:06 73° ENE 10:47:24 10° SE
ATLAS 3B R/B 3.9 10:37:03 13° NNW 10:43:43 45° NE 10:50:53 10° SE
Cosmos 2084 Rocket 4.2 10:46:11 51° SE 10:46:20 51° ESE 10:50:31 10° NE
Cosmos 2263 Rocket 3.0 10:47:03 17° N 10:51:13 49° ENE 10:56:37 10° SE
ATLAS 2AS CENTAUR R/B 4.4 10:57:11 17° NNW 10:57:11 17° NNW 10:59:49 10° N
Cosmos 2344 4.2 10:51:22 10° SSW 10:59:47 57° ESE 11:06:52 10° NE
Cosmos 2227 Rocket 2.4 11:01:30 49° SW 11:01:30 49° SW 11:06:21 10° S
USA 59 Rocket 3.2 11:02:00 10° NE 11:02:55 10° NE 11:03:54 10° ENE
Cosmos 2266 Rocket 4.1 10:57:50 10° SSW 11:04:03 54° W 11:10:19 10° N
SL-16 R/B 3.0 11:00:45 10° S 11:06:12 52° ESE 11:11:42 10° NNE
Cosmos 968 Rocket 3.5 11:06:12 56° WSW 11:06:14 56° WSW 11:11:19 10° S
Gbstr 26 Del rocket 4.2 11:11:15 31° NNW 11:11:15 31° NNW 11:14:59 10° NNE
SJ 16-02 2.3 11:13:38 31° SSW 11:13:38 31° SSW 11:16:14 10° S
Cosmos 2285 Rocket 4.1 11:11:26 30° NW 11:14:29 54° WSW 11:20:40 10° S
DELTA 2 R/B (1) 4.4 11:18:49 29° NW 11:20:45 39° N 11:25:57 10° ENE
ATLAS 2A CENTAUR R/B 3.2 11:22:46 28° SW 11:24:22 39° S 11:33:52 10° ESE
Cosmos 1655 Rocket 4.0 11:18:49 10° SSW 11:25:05 58° W 11:31:21 10° N
Delta 7925 Rocket 4.3 11:23:20 28° SW 11:25:30 41° S 11:31:10 10° ESE
Cosmos 2219 3.1 11:23:41 18° NNW 11:27:57 65° WSW 11:33:30 10° S
Cosmos 2333 Rocket 3.6 11:27:22 10° S 11:32:39 40° ESE 11:37:56 10° NE
Meteor 1-24 Rocket 4.4 11:31:14 10° SW 11:35:59 29° WNW 11:40:39 10° NNW
Cosmos 2278 3.6 11:31:36 10° SSW 11:37:11 67° WNW 11:42:49 10° NNE
Cosmos 1378 Rocket 3.5 11:34:23 10° SSW 11:38:44 62° W 11:43:07 10° N
S3M 4.3 11:33:18 10° NNW 11:39:00 40° W 11:44:39 10° SSW
ARIANE 5 R/B 3.6 11:34:25 10° NNE 11:39:19 47° E 11:44:15 10° S
Cosmos 1025 Rocket 4.3 11:36:40 10° SSE 11:40:39 42° E 11:44:40 10° NNE
Cosmos 1674 Rocket 3.4 11:36:41 10° S 11:40:57 76° W 11:45:15 10° N
Thor Agena Rocket 4.1 11:37:20 10° N 11:41:55 33° WNW 11:46:26 10° SW
ARIANE 6 FM1 Upper Stage 3.3 11:41:37 28° W 11:42:54 34° NW 11:46:46 10° NNE
ARGOS 3.5 11:39:14 10° N 11:44:19 42° WNW 11:49:22 10° SW
Cosmos 2322 Rocket 2.5 11:39:58 10° S 11:45:36 71° ESE 11:51:14 10° NNE
COSMO-SKYMED 1 2.7 11:44:29 10° SSE 11:48:47 76° ENE 11:53:08 10° N
Cosmos 1980 Rocket 4.1 11:52:26 11° NW 11:52:26 11° NW 11:53:03 10° NW
Lacrosse 4 Rocket 1.4 11:48:12 16° NW 11:51:20 52° WSW 11:55:15 10° S
Okean 2 Rocket 3.2 11:49:56 10° N 11:54:24 79° E 11:58:48 10° S
Cosmos 44 Rocket 4.5 11:53:39 19° W 11:54:58 21° WSW 11:58:28 10° SSW
